Regional Weather Roundup
Issued by NWS Cleveland, OH

Home | Current Version | Previous Version | Graphics & Text | Print | Product List | Glossary On
Versions: 1 2 3 4 5 6 7 8 9 10 11 12 13 14 15 16 17 18 19 20 21 22 23 24 25 26 27 28 29 30 31 32 33 34 35 36 37 38 39 40 41 42 43 44 45 46 47 48 49 50
000
ASUS41 KCLE 261212
RWRCLE
OHIO REGIONAL WEATHER ROUNDUP
NATIONAL WEATHER SERVICE WILMINGTON, OH
700 AM EST SUN FEB 26 2017

NOTE: "FAIR" INDICATES FEW OR NO CLOUDS BELOW 12,000 FEET WITH NO
SIGNIFICANT WEATHER AND/OR OBSTRUCTIONS TO VISIBILITY.

OHZ001>008-015>018-024>027-034-035-043-044-261300-
   NORTHWEST OHIO

CITY           SKY/WX    TMP DP  RH WIND       PRES   REMARKS
DEFIANCE       FAIR      21  16  81 SW5       30.10S WCI  15
FINDLAY        FAIR      24  16  71 W5        30.09S WCI  18
TOLEDO EXPRESS FAIR      21  19  92 S6        30.08S WCI  13
TOLEDO EXEC    FAIR      24  20  84 SW5       30.10R WCI  18
LIMA           FAIR      22  20  92 S3        30.09S
$$

OHZ009>014-019>023-028>033-038-089-261300-
   NORTHEAST OHIO

CITY           SKY/WX    TMP DP  RH WIND       PRES   REMARKS
CLE-HOPKINS    FLURRIES  26  17  68 SW9       30.10R WCI  17
CLE-LAKEFRONT  FLURRIES  27  20  75 SW20      30.08R WCI  13
CUY CO. ARPT   LGT SNOW  27  21  80 NW17      30.07  WCI  14
LORAIN-ELYRIA  CLOUDY    25  15  66 W8        30.09R WCI  16
ASHTABULA      FLURRIES  24  19  81 W7        30.05R WCI  16
AKRON-CANTON   CLOUDY    25  15  66 W13       30.06R WCI  14
WOOSTER        MOCLDY    24  17  74 W6        30.08R WCI  17
MANSFIELD      CLOUDY    24  16  71 W7        30.07R WCI  16
YOUNGSTOWN     FLURRIES  25  15  66 W9        30.04R WCI  15
$$

OHZ042-051>053-060>062-070>072-077>081-261300-
  SOUTHWEST OHIO

CITY           SKY/WX    TMP DP  RH WIND       PRES   REMARKS
CINC-COVINGTON FAIR      21  15  78 W5        30.16R WCI  15
CINC-LUNKEN    FAIR      26  16  65 NW6       30.20R WCI  19
HAMILTON       FAIR      18  14  84 CALM      30.18R
DAYTON         FAIR      21  15  78 W6        30.13R WCI  13
WRIGHT-PAT AFB FAIR      24  16  71 W5        30.13R WCI  18
DAYTON GENERAL FAIR      23  17  78 SW5       30.13R WCI  17
WILMINGTON     FAIR      22  16  78 SW6       30.14R WCI  14
$$

OHZ036-037-039>041-045>050-054>059-063>069-073>076-082>088-261300-
  CENTRAL AND SOUTHEAST OHIO

CITY           SKY/WX    TMP DP  RH WIND       PRES   REMARKS
COLUMBUS       CLOUDY    29  16  58 W12       30.11R WCI  19
OSU AIRPORT    CLOUDY    27  17  66 W6        30.11R WCI  20
BOLTON FIELD   CLOUDY    27  15  60 W6        30.13R WCI  21
RICKENBACK AFB CLOUDY    28  17  65 NW6       30.13R WCI  21
NEWARK         CLOUDY    29  17  61 W9        30.11R WCI  20
MARION         FAIR      23  16  74 W5        30.10R WCI  17
LANCASTER      CLOUDY    29  18  63 W7        30.12R WCI  22
ZANESVILLE     CLOUDY    29  14  53 W7        30.10R WCI  22
NEW PHILLY     CLOUDY    27  20  75 W6        30.10R WCI  20
$$



USA.gov is the U.S. government's official web portal to all federal, state and local government web resources and services.